Location: Belfast
(54.5830°N, 5.9330°W)
Time: 13:40:54
(UTC+01:00)

ISS - Pass Details

Date: 26 May 2018
Orbit: 402 x 407 km, 51.6° (Epoch: 22 May)

Event Time Altitude Azimuth Distance (km) Brightness Sun altitude
Rises 23:16:50 0° 261° (W) 2,321 0.3 -9.7°
Reaches altitude 10° 23:18:57 10° 256° (WSW) 1,461 -0.8 -9.8°
Maximum altitude 23:22:07 50° 180° (S) 520 -3.7 -10.0°
Drops below altitude 10° 23:25:19 10° 103° (ESE) 1,459 -1.4 -10.2°
Enters shadow 23:26:17 - 100° (E) 1,850 -0.8 -10.3°
